Previsão horária em Abdulovo

Hoje, 10 Abril, Sábado

Tempo Temperatura Precipitação Vento Pressão Humidade
00:00 +3°C° 0 mm 4 m/s 754 mmHg 87%
01:00 +2°C° 0 mm 5 m/s 754 mmHg 84%
02:00 +1°C° 0 mm 4 m/s 754 mmHg 83%
03:00 +1°C° 0 mm 4 m/s 754 mmHg 82%
04:00 +1°C° 0 mm 3 m/s 754 mmHg 83%
05:00 +1°C° 0 mm 4 m/s 755 mmHg 83%
06:00 +1°C° 0 mm 4 m/s 755 mmHg 83%
07:00 +1°C° 0 mm 4 m/s 755 mmHg 83%
08:00 +2°C° 0 mm 5 m/s 756 mmHg 87%
09:00 +3°C° 0 mm 5 m/s 756 mmHg 91%
10:00 +3°C° 0 mm 5 m/s 756 mmHg 95%
11:00 +4°C° 0 mm 6 m/s 756 mmHg 94%
12:00 +5°C° 0 mm 6 m/s 756 mmHg 92%
13:00 +6°C° 0 mm 7 m/s 756 mmHg 91%
14:00 +6°C° 0 mm 7 m/s 757 mmHg 91%
15:00 +6°C° 0 mm 8 m/s 757 mmHg 91%
16:00 +6°C° 0 mm 8 m/s 757 mmHg 91%
17:00 +5°C° 0 mm 8 m/s 757 mmHg 92%
18:00 +4°C° 0 mm 8 m/s 757 mmHg 94%
19:00 +2°C° 0 mm 8 m/s 757 mmHg 95%
20:00 +2°C° 0 mm 8 m/s 758 mmHg 95%
21:00 +2°C° 0 mm 8 m/s 758 mmHg 95%
22:00 +2°C° 0 mm 7 m/s 758 mmHg 95%
23:00 +2°C° 0 mm 7 m/s 758 mmHg 89%

Amanhã, 11 Abril, Domingo

Tempo Temperatura Precipitação Vento Pressão Humidade
00:00 0°C° 0 mm 7 m/s 758 mmHg 84%
01:00 +1°C° 0 mm 6 m/s 758 mmHg 79%
02:00 +1°C° 0 mm 6 m/s 759 mmHg 79%
03:00 -1°C° 0 mm 6 m/s 759 mmHg 78%
04:00 -1°C° 0 mm 6 m/s 759 mmHg 78%
05:00 -1°C° 0 mm 6 m/s 759 mmHg 79%
06:00 +1°C° 0 mm 6 m/s 760 mmHg 79%
07:00 +1°C° 0 mm 6 m/s 760 mmHg 79%
08:00 +2°C° 0 mm 6 m/s 760 mmHg 78%
09:00 +4°C° 0 mm 7 m/s 760 mmHg 76%
10:00 +5°C° 0 mm 7 m/s 760 mmHg 75%
11:00 +6°C° 0 mm 7 m/s 760 mmHg 72%
12:00 +9°C° 0 mm 6 m/s 760 mmHg 69%
13:00 +10°C° 0 mm 6 m/s 760 mmHg 66%
14:00 +11°C° 0 mm 6 m/s 760 mmHg 64%
15:00 +11°C° 0 mm 6 m/s 760 mmHg 62%
16:00 +13°C° 0 mm 6 m/s 759 mmHg 61%
17:00 +12°C° 0 mm 5 m/s 760 mmHg 67%
18:00 +9°C° 0 mm 5 m/s 760 mmHg 74%
19:00 +8°C° 0 mm 5 m/s 760 mmHg 81%
20:00 +7°C° 0 mm 4 m/s 760 mmHg 82%
21:00 +7°C° 0 mm 3 m/s 760 mmHg 84%
22:00 +5°C° 0 mm 3 m/s 760 mmHg 85%
23:00 +6°C° 0 mm 2 m/s 760 mmHg 84%

Depois de amanhã, 12 Abril, Segunda-feira

Tempo Temperatura Precipitação Vento Pressão Humidade
00:00 +6°C° 0 mm 2 m/s 761 mmHg 83%
01:00 +5°C° 0 mm 2 m/s 761 mmHg 82%
02:00 +5°C° 0 mm 2 m/s 761 mmHg 79%
03:00 +5°C° 0 mm 2 m/s 761 mmHg 77%
04:00 +4°C° 0 mm 2 m/s 761 mmHg 74%
05:00 +5°C° 0 mm 2 m/s 761 mmHg 71%
06:00 +6°C° 0 mm 1 m/s 761 mmHg 67%
07:00 +6°C° 0 mm 1 m/s 761 mmHg 64%
08:00 +8°C° 0 mm 1 m/s 761 mmHg 56%
09:00 +10°C° 0 mm 1 m/s 761 mmHg 48%
10:00 +12°C° 0 mm 1 m/s 761 mmHg 40%
11:00 +13°C° 0 mm 1 m/s 761 mmHg 36%
12:00 +15°C° 0 mm 1 m/s 761 mmHg 33%
13:00 +16°C° 0 mm 1 m/s 761 mmHg 29%
14:00 +18°C° 0 mm 1 m/s 760 mmHg 28%
15:00 +18°C° 0 mm 1 m/s 760 mmHg 28%
16:00 +19°C° 0 mm 1 m/s 760 mmHg 27%
17:00 +17°C° 0 mm 2 m/s 760 mmHg 32%
18:00 +15°C° 0 mm 2 m/s 760 mmHg 37%
19:00 +14°C° 0 mm 2 m/s 760 mmHg 42%
20:00 +13°C° 0 mm 2 m/s 760 mmHg 46%
21:00 +12°C° 0 mm 1 m/s 760 mmHg 49%
22:00 +11°C° 0 mm 1 m/s 760 mmHg 53%
23:00 +10°C° 0 mm 1 m/s 760 mmHg 55%

13 Abril, Terça-feira

Tempo Temperatura Precipitação Vento Pressão Humidade
00:00 +9°C° 0 mm 2 m/s 761 mmHg 58%
01:00 +8°C° 0 mm 2 m/s 761 mmHg 60%
02:00 +7°C° 0 mm 2 m/s 761 mmHg 60%
03:00 +6°C° 0 mm 2 m/s 761 mmHg 59%
04:00 +7°C° 0 mm 1 m/s 761 mmHg 58%
05:00 +7°C° 0 mm 1 m/s 761 mmHg 58%
06:00 +7°C° 0 mm 1 m/s 761 mmHg 57%
07:00 +8°C° 0 mm 1 m/s 761 mmHg 56%
08:00 +8°C° 0 mm 2 m/s 761 mmHg 51%
09:00 +10°C° 0 mm 3 m/s 761 mmHg 45%
10:00 +12°C° 0 mm 3 m/s 761 mmHg 40%
11:00 +13°C° 0 mm 3 m/s 761 mmHg 36%
12:00 +16°C° 0 mm 3 m/s 761 mmHg 33%
13:00 +17°C° 0 mm 4 m/s 760 mmHg 29%
14:00 +17°C° 0 mm 3 m/s 760 mmHg 28%
15:00 +18°C° 0 mm 3 m/s 760 mmHg 28%
16:00 +18°C° 0 mm 3 m/s 760 mmHg 27%
17:00 +17°C° 0 mm 3 m/s 759 mmHg 32%
18:00 +16°C° 0 mm 3 m/s 759 mmHg 37%
19:00 +15°C° 0 mm 2 m/s 759 mmHg 42%
20:00 +13°C° 0 mm 2 m/s 759 mmHg 46%
21:00 +12°C° 0 mm 2 m/s 759 mmHg 50%
22:00 +10°C° 0 mm 2 m/s 759 mmHg 55%
23:00 +10°C° 0 mm 2 m/s 759 mmHg 58%

14 Abril, Quarta-feira

Tempo Temperatura Precipitação Vento Pressão Humidade
00:00 +9°C° 0 mm 2 m/s 759 mmHg 62%
01:00 +8°C° 0 mm 2 m/s 759 mmHg 65%
02:00 +8°C° 0 mm 1 m/s 759 mmHg 68%
03:00 +8°C° 0 mm 1 m/s 759 mmHg 70%
04:00 +7°C° 0 mm 1 m/s 759 mmHg 73%
05:00 +8°C° 0 mm 1 m/s 759 mmHg 72%
06:00 +8°C° 0 mm 1 m/s 758 mmHg 72%
07:00 +9°C° 0 mm 1 m/s 758 mmHg 71%
08:00 +10°C° 0 mm 1 m/s 758 mmHg 66%
09:00 +12°C° 0 mm 1 m/s 758 mmHg 60%
10:00 +14°C° 0 mm 2 m/s 757 mmHg 55%
11:00 +15°C° 0 mm 2 m/s 757 mmHg 50%
12:00 +17°C° 0 mm 2 m/s 757 mmHg 45%
13:00 +19°C° 0 mm 1 m/s 756 mmHg 40%
14:00 +19°C° 0 mm 1 m/s 756 mmHg 38%
15:00 +20°C° 0 mm 1 m/s 755 mmHg 35%
16:00 +20°C° 0 mm 1 m/s 755 mmHg 33%
17:00 +19°C° 0 mm 1 m/s 755 mmHg 36%
18:00 +17°C° 0 mm 2 m/s 754 mmHg 39%
19:00 +16°C° 0 mm 2 m/s 754 mmHg 42%
20:00 +15°C° 0 mm 2 m/s 754 mmHg 44%
21:00 +14°C° 0 mm 2 m/s 754 mmHg 45%
22:00 +13°C° 0 mm 2 m/s 754 mmHg 47%
23:00 +13°C° 0 mm 2 m/s 754 mmHg 49%

15 Abril, Quinta-feira

Tempo Temperatura Precipitação Vento Pressão Humidade
00:00 +12°C° 0 mm 2 m/s 753 mmHg 50%
01:00 +10°C° 0 mm 2 m/s 753 mmHg 52%
02:00 +10°C° 0 mm 2 m/s 753 mmHg 54%
03:00 +10°C° 0 mm 1 m/s 753 mmHg 55%
04:00 +10°C° 0 mm 1 m/s 753 mmHg 56%
05:00 +10°C° 0 mm 1 m/s 753 mmHg 57%
06:00 +10°C° 0 mm 1 m/s 753 mmHg 57%
07:00 +11°C° 0 mm 1 m/s 753 mmHg 57%
08:00 +12°C° 0 mm 1 m/s 753 mmHg 53%
09:00 +14°C° 0 mm 1 m/s 752 mmHg 50%
10:00 +16°C° 0 mm 1 m/s 752 mmHg 46%
11:00 +18°C° 0 mm 1 m/s 752 mmHg 44%
12:00 +19°C° 0 mm 1 m/s 752 mmHg 41%
13:00 +20°C° 0 mm 1 m/s 751 mmHg 39%
14:00 +20°C° 0 mm 1 m/s 751 mmHg 38%
15:00 +21°C° 0 mm 1 m/s 750 mmHg 37%
16:00 +21°C° 0 mm 1 m/s 750 mmHg 36%
17:00 +20°C° 0 mm 1 m/s 749 mmHg 41%
18:00 +19°C° 0 mm 1 m/s 749 mmHg 45%
19:00 +18°C° 0 mm 1 m/s 749 mmHg 49%
20:00 +18°C° 0 mm 1 m/s 748 mmHg 51%
21:00 +16°C° 0 mm 1 m/s 748 mmHg 54%
22:00 +15°C° 0 mm 1 m/s 748 mmHg 56%
23:00 +14°C° 0 mm 2 m/s 748 mmHg 57%
Mostrar mais